Staples, MN

4:48 PM CST on January 22, 2018 (GMT -0600)
Staples Municipal

Weather History for KSAZ - May, 2014

Change the Weather History Date:

Sunday, May 11, 2014

  Actual Average Record
Temperature  
Mean Temperature 56 °F -  
Max Temperature 64 °F 61 °F 78 °F (2004)
Min Temperature 48 °F 40 °F 30 °F (2008)
Degree Days  
Heating Degree Days 9    
Growing Degree Days 6 (Base 50)    
Moisture  
Dew Point 49 °F    
Average Humidity 80    
Maximum Humidity 100    
Minimum Humidity 52    
Precipitation  
Precipitation 0.19 in - - ()
Sea Level Pressure  
Sea Level Pressure 29.85 in    
Wind  
Wind Speed 6 mph (SSW)    
Max Wind Speed 16 mph    
Max Gust Speed 20 mph    
Visibility 9 miles    
Events Rain    
Averages and records for this station are not official NWS values.
T = Trace of Precipitation, MM = Missing Value Source: NWS Daily Summary

Daily Weather History Graph

Daily Weather History Graph

Search for Another Location

Airport or City:

Trip Planner

Search our weather history database for the weather conditions in past years. The results will help you decide how hot, cold, wet, or windy it might be!

Date:

Astronomy

May. 11, 2014 Rise Set
Actual Time 5:50 AM CDT 8:41 PM CDT
Civil Twilight 5:16 AM CDT 9:16 PM CDT
Nautical Twilight 4:31 AM CDT 10:00 PM CDT
Astronomical Twilight 3:39 AM CDT 10:53 PM CDT
Moon 5:27 PM CDT (5/11) 4:08 AM CDT (5/11)
Length of Visible Light 16h 00m
Length of Day
14h 50m
Waxing Gibbous, 89% of the Moon is Illuminated
May 11
Waxing Gibbous
May 14
Full
May 21
Last Quarter
May 28
New
Jun 5
First Quarter

Hourly Weather History & Observations

Time (CDT) Temp. Dew Point Humidity Pressure Visibility Wind Dir Wind Speed Gust Speed Precip Events Conditions
12:13 AM 51.8 °F 46.4 °F 82% 29.80 in 10.0 mi SE 6.9 mph - N/A   Scattered Clouds
12:33 AM 51.8 °F 48.2 °F 88% 29.81 in 10.0 mi SE 5.8 mph - N/A   Scattered Clouds
12:53 AM 51.8 °F 48.2 °F 88% 29.80 in 10.0 mi SE 5.8 mph - N/A   Scattered Clouds
1:13 AM 51.8 °F 48.2 °F 88% 29.80 in 10.0 mi SE 6.9 mph - N/A   Clear
1:34 AM 51.8 °F 48.2 °F 88% 29.79 in 10.0 mi SE 5.8 mph - N/A   Clear
1:53 AM 51.8 °F 48.2 °F 88% 29.79 in 10.0 mi SE 6.9 mph - N/A   Clear
2:13 AM 51.8 °F 48.2 °F 88% 29.79 in 10.0 mi SE 6.9 mph - N/A   Clear
2:34 AM 51.8 °F 48.2 °F 88% 29.79 in 10.0 mi SSE 8.1 mph - N/A   Clear
2:53 AM 51.8 °F 48.2 °F 88% 29.79 in 10.0 mi SSE 8.1 mph - N/A   Clear
3:13 AM 51.8 °F 48.2 °F 88% 29.79 in 10.0 mi SSE 8.1 mph - N/A   Clear
3:34 AM 51.8 °F 48.2 °F 88% 29.79 in 10.0 mi SSE 5.8 mph - N/A   Clear
3:53 AM 48.2 °F 48.2 °F 100% 29.80 in 10.0 mi SSE 4.6 mph - N/A   Clear
4:13 AM 50.0 °F 48.2 °F 94% 29.79 in 10.0 mi SE 3.5 mph - N/A   Clear
4:34 AM 50.0 °F 48.2 °F 94% 29.79 in 10.0 mi SE 3.5 mph - N/A   Clear
4:53 AM 48.2 °F 48.2 °F 100% 29.79 in 10.0 mi ESE 3.5 mph - N/A   Clear
5:13 AM 48.2 °F 48.2 °F 100% 29.80 in 7.0 mi SE 3.5 mph - N/A   Clear
5:34 AM 48.2 °F 48.2 °F 100% 29.80 in 7.0 mi ESE 3.5 mph - N/A   Clear
5:53 AM 48.2 °F 48.2 °F 100% 29.81 in 5.0 mi SE 3.5 mph - N/A   Clear
6:13 AM 48.2 °F 46.4 °F 93% 29.82 in 4.0 mi SE 4.6 mph - N/A   Clear
6:34 AM 48.2 °F 48.2 °F 100% 29.82 in 4.0 mi SE 4.6 mph - N/A   Clear
6:53 AM 48.2 °F 46.4 °F 93% 29.82 in 4.0 mi ESE 3.5 mph - N/A   Clear
7:13 AM 48.2 °F 48.2 °F 100% 29.83 in 5.0 mi ESE 4.6 mph - N/A   Clear
7:33 AM 48.2 °F 48.2 °F 100% 29.84 in 10.0 mi SE 3.5 mph - N/A   Clear
7:53 AM 50.0 °F 48.2 °F 94% 29.83 in 10.0 mi SE 3.5 mph - N/A   Clear
8:14 AM 51.8 °F 48.2 °F 88% 29.83 in 10.0 mi SSW 3.5 mph - N/A   Scattered Clouds
8:33 AM 51.8 °F 48.2 °F 88% 29.83 in 10.0 mi SW 4.6 mph - N/A   Scattered Clouds
8:53 AM 51.8 °F 46.4 °F 82% 29.83 in 10.0 mi Calm Calm - N/A   Scattered Clouds
9:13 AM 53.6 °F 48.2 °F 82% 29.86 in 10.0 mi South 6.9 mph - N/A   Scattered Clouds
9:33 AM 55.4 °F 48.2 °F 77% 29.86 in 10.0 mi South 3.5 mph - N/A   Clear
9:53 AM 55.4 °F 48.2 °F 77% 29.85 in 10.0 mi SSE 6.9 mph - N/A   Clear
10:14 AM 57.2 °F 48.2 °F 72% 29.86 in 10.0 mi South 8.1 mph - N/A   Clear
10:33 AM 57.2 °F 48.2 °F 72% 29.87 in 10.0 mi South 9.2 mph - N/A   Clear
10:53 AM 57.2 °F 48.2 °F 72% 29.88 in 10.0 mi South 8.1 mph - N/A   Clear
11:14 AM 59.0 °F 46.4 °F 63% 29.88 in 10.0 mi SSW 6.9 mph - N/A   Clear
11:33 AM 60.8 °F 48.2 °F 63% 29.87 in 10.0 mi South 6.9 mph - N/A   Clear
11:53 AM 62.6 °F 46.4 °F 55% 29.87 in 10.0 mi SW 9.2 mph - N/A   Clear
12:14 PM 62.6 °F 46.4 °F 55% 29.88 in 10.0 mi South 8.1 mph - N/A   Clear
12:33 PM 62.6 °F 46.4 °F 55% 29.87 in 10.0 mi South 5.8 mph - N/A   Clear
12:53 PM 64.4 °F 46.4 °F 52% 29.86 in 10.0 mi West 4.6 mph - N/A   Clear
1:13 PM 64.4 °F 46.4 °F 52% 29.87 in 10.0 mi SW 5.8 mph - N/A   Clear
1:33 PM 64.4 °F 46.4 °F 52% 29.86 in 10.0 mi West 5.8 mph - N/A   Clear
1:54 PM 64.4 °F 46.4 °F 52% 29.87 in 10.0 mi SW 5.8 mph - N/A   Clear
2:13 PM 62.6 °F 46.4 °F 55% 29.87 in 10.0 mi WSW 8.1 mph - N/A   Mostly Cloudy
2:33 PM 62.6 °F 48.2 °F 59% 29.87 in 10.0 mi West 8.1 mph - N/A   Overcast
2:54 PM 62.6 °F 48.2 °F 59% 29.87 in 10.0 mi West 5.8 mph - N/A   Overcast
3:13 PM 62.6 °F 48.2 °F 59% 29.87 in 10.0 mi Calm Calm - N/A   Mostly Cloudy
3:33 PM 62.6 °F 48.2 °F 59% 29.87 in 10.0 mi SSW 3.5 mph - N/A   Mostly Cloudy
3:54 PM 60.8 °F 50.0 °F 68% 29.87 in 10.0 mi West 3.5 mph - N/A   Mostly Cloudy
4:13 PM 60.8 °F 50.0 °F 68% 29.87 in 10.0 mi West 4.6 mph - N/A   Mostly Cloudy
4:33 PM 60.8 °F 50.0 °F 68% 29.88 in 10.0 mi WNW 3.5 mph - N/A   Mostly Cloudy
4:54 PM 60.8 °F 50.0 °F 68% 29.87 in 10.0 mi WNW 4.6 mph - N/A   Scattered Clouds
5:13 PM 60.8 °F 50.0 °F 68% 29.87 in 10.0 mi NW 4.6 mph - N/A   Mostly Cloudy
5:33 PM 60.8 °F 50.0 °F 68% 29.86 in 10.0 mi NW 3.5 mph - N/A   Overcast
5:54 PM 60.8 °F 50.0 °F 68% 29.86 in 10.0 mi NW 3.5 mph - N/A   Mostly Cloudy
6:13 PM 60.8 °F 50.0 °F 68% 29.85 in 10.0 mi NW 4.6 mph - N/A   Overcast
6:33 PM 60.8 °F 50.0 °F 68% 29.85 in 10.0 mi NW 3.5 mph - N/A   Mostly Cloudy
6:54 PM 60.8 °F 50.0 °F 68% 29.84 in 10.0 mi Calm Calm - N/A   Mostly Cloudy
7:13 PM 59.0 °F 51.8 °F 77% 29.85 in 10.0 mi WNW 3.5 mph - N/A   Mostly Cloudy
7:33 PM 57.2 °F 51.8 °F 82% 29.85 in 10.0 mi WNW 3.5 mph - N/A Rain Light Rain
7:54 PM 57.2 °F 51.8 °F 82% 29.84 in 10.0 mi NNW 5.8 mph - N/A Rain Light Rain
8:13 PM 57.2 °F 51.8 °F 82% 29.84 in 10.0 mi NW 4.6 mph - N/A Rain Rain
8:33 PM 55.4 °F 51.8 °F 88% 29.86 in 10.0 mi WNW 5.8 mph - 0.01 in Rain Light Rain
8:54 PM 55.4 °F 51.8 °F 88% 29.88 in 10.0 mi WNW 10.4 mph - 0.03 in Rain Light Rain
9:13 PM 53.6 °F 51.8 °F 94% 29.89 in 10.0 mi WNW 13.8 mph - 0.04 in Rain Light Rain
9:34 PM 53.6 °F 51.8 °F 94% 29.89 in 7.0 mi NW 16.1 mph - 0.06 in Rain Rain
9:53 PM 53.6 °F 51.8 °F 94% 29.89 in 10.0 mi NNW 11.5 mph 19.6 mph 0.06 in   Light Drizzle
10:13 PM 53.6 °F 51.8 °F 94% 29.89 in 10.0 mi NNW 9.2 mph - N/A   Light Drizzle
10:34 PM 53.6 °F 51.8 °F 94% 29.90 in 10.0 mi NNW 6.9 mph - N/A   Drizzle
10:53 PM 51.8 °F 51.8 °F 100% 29.90 in 10.0 mi North 8.1 mph - 0.02 in Rain Rain
11:13 PM 51.8 °F 51.8 °F 100% 29.89 in 7.0 mi NNE 5.8 mph - 0.02 in Rain Light Rain
11:34 PM 51.8 °F 51.8 °F 100% 29.89 in 7.0 mi North 3.5 mph - 0.06 in Rain Heavy Rain
11:53 PM 51.8 °F 51.8 °F 100% 29.89 in 7.0 mi NNE 4.6 mph - 0.08 in Rain Rain